,,PressureMeas_1m,,PRMeasQMR101_1,,RHStat155_1m_1,,SRMeasQMS101R_1m,,TAStat155_1m_1,,GenWind_1,,GenWind_1,
2019-03-07, 00:00:06,VALID,920.219,VALID,0.0,VALID,95.327,VALID,0.005,VALID,21.592,INVALID,360.0,VALID,0.0,
2019-03-07, 00:01:06,VALID,920.212,VALID,0.0,VALID,95.116,VALID,-0.006,VALID,21.56,INVALID,360.0,VALID,0.0,
2019-03-07, 00:02:06,VALID,920.191,VALID,0.0,VALID,95.249,VALID,0.007,VALID,21.54,INVALID,360.0,VALID,0.0,
2019-03-07, 00:03:06,VALID,920.184,VALID,0.0,VALID,95.251,VALID,0.017,VALID,21.515,INVALID,360.0,VALID,0.0,
2019-03-07, 00:04:06,VALID,920.172,VALID,0.0,VALID,95.457,VALID,0.014,VALID,21.509,INVALID,360.0,VALID,0.0,
2019-03-07, 00:05:06,VALID,920.145,VALID,0.0,VALID,95.641,VALID,0.015,VALID,21.535,INVALID,360.0,VALID,0.0,
2019-03-07, 00:06:06,VALID,920.135,VALID,0.0,VALID,95.509,VALID,0.005,VALID,21.556,INVALID,360.0,VALID,0.0,
2019-03-07, 00:07:06,VALID,920.113,VALID,0.0,VALID,95.388,VALID,0.012,VALID,21.568,INVALID,360.0,VALID,0.0,
2019-03-07, 00:08:06,VALID,920.093,VALID,0.0,VALID,95.382,VALID,-0.002,VALID,21.59,INVALID,360.0,VALID,0.0,
2019-03-07, 00:09:06,VALID,920.123,VALID,0.0,VALID,95.234,VALID,0.026,VALID,21.591,INVALID,360.0,VALID,0.0,
2019-03-07, 00:10:06,VALID,920.105,VALID,0.0,VALID,95.236,VALID,0.009,VALID,21.593,INVALID,360.0,VALID,0.0,
2019-03-07, 00:11:06,VALID,920.112,VALID,0.0,VALID,95.267,VALID,0.004,VALID,21.587,INVALID,360.0,VALID,0.0,
2019-03-07, 00:12:06,VALID,920.093,VALID,0.0,VALID,95.303,VALID,0.01,VALID,21.585,INVALID,360.0,VALID,0.0,
2019-03-07, 00:13:06,VALID,920.069,VALID,0.0,VALID,95.316,VALID,-0.001,VALID,21.59,INVALID,360.0,VALID,0.0,
2019-03-07, 00:14:06,VALID,920.012,VALID,0.0,VALID,95.309,VALID,0.007,VALID,21.593,INVALID,360.0,VALID,0.0,
2019-03-07, 00:15:06,VALID,919.955,VALID,0.0,VALID,95.308,VALID,0.014,VALID,21.606,INVALID,360.0,VALID,0.0,
2019-03-07, 00:16:06,VALID,919.923,VALID,0.0,VALID,95.286,VALID,0.014,VALID,21.633,INVALID,360.0,VALID,0.0,
2019-03-07, 00:17:06,VALID,919.879,VALID,0.0,VALID,95.194,VALID,0.027,VALID,21.655,INVALID,360.0,VALID,0.0,
2019-03-07, 00:18:06,VALID,919.832,VALID,0.0,VALID,95.07,VALID,0.019,VALID,21.655,INVALID,360.0,VALID,0.0,
2019-03-07, 00:19:06,VALID,919.789,VALID,0.0,VALID,95.125,VALID,0.032,VALID,21.676,INVALID,360.0,VALID,0.0,
2019-03-07, 00:20:06,VALID,919.763,VALID,0.0,VALID,94.985,VALID,0.024,VALID,21.684,INVALID,360.0,VALID,0.0,
2019-03-07, 00:21:06,VALID,919.742,VALID,0.0,VALID,94.821,VALID,0.023,VALID,21.669,INVALID,360.0,VALID,0.0,
2019-03-07, 00:22:06,VALID,919.714,VALID,0.0,VALID,94.931,VALID,0.03,VALID,21.662,INVALID,360.0,VALID,0.0,
2019-03-07, 00:23:06,VALID,919.67,VALID,0.0,VALID,95.04,VALID,0.026,VALID,21.677,INVALID,360.0,VALID,0.0,
2019-03-07, 00:24:06,VALID,919.63,VALID,0.0,VALID,95.154,VALID,0.022,VALID,21.702,INVALID,360.0,VALID,0.0,
2019-03-07, 00:25:06,VALID,919.617,VALID,0.0,VALID,94.864,VALID,0.024,VALID,21.686,INVALID,360.0,VALID,0.0,
2019-03-07, 00:26:06,VALID,919.58,VALID,0.0,VALID,94.865,VALID,0.004,VALID,21.688,INVALID,360.0,VALID,0.0,
2019-03-07, 00:27:06,VALID,919.542,VALID,0.0,VALID,94.946,VALID,0.022,VALID,21.7,INVALID,360.0,VALID,0.0,
2019-03-07, 00:28:06,VALID,919.5,VALID,0.0,VALID,94.896,VALID,0.001,VALID,21.711,INVALID,360.0,VALID,0.0,
2019-03-07, 00:29:06,VALID,919.472,VALID,0.0,VALID,94.822,VALID,-0.0,VALID,21.723,INVALID,360.0,VALID,0.0,
2019-03-07, 00:30:06,VALID,919.432,VALID,0.0,VALID,94.743,VALID,0.001,VALID,21.722,INVALID,360.0,VALID,0.0,
2019-03-07, 00:31:06,VALID,919.415,VALID,0.0,VALID,94.235,VALID,-0.003,VALID,21.666,INVALID,360.0,VALID,0.0,
2019-03-07, 00:32:06,VALID,919.382,VALID,0.0,VALID,94.289,VALID,0.007,VALID,21.633,INVALID,360.0,VALID,0.0,
2019-03-07, 00:33:06,VALID,919.371,VALID,0.0,VALID,94.489,VALID,-0.011,VALID,21.615,INVALID,360.0,VALID,0.0,
2019-03-07, 00:34:06,VALID,919.352,VALID,0.0,VALID,94.717,VALID,-0.01,VALID,21.618,INVALID,360.0,VALID,0.0,
2019-03-07, 00:35:06,VALID,919.345,VALID,0.0,VALID,94.753,VALID,-0.025,VALID,21.611,INVALID,360.0,VALID,0.0,
2019-03-07, 00:36:06,VALID,919.326,VALID,0.0,VALID,94.827,VALID,-0.007,VALID,21.627,INVALID,360.0,VALID,0.0,
2019-03-07, 00:37:06,VALID,919.308,VALID,0.0,VALID,94.89,VALID,0.012,VALID,21.659,INVALID,360.0,VALID,0.0,
2019-03-07, 00:38:06,VALID,919.308,VALID,0.0,VALID,94.872,VALID,0.007,VALID,21.688,INVALID,360.0,VALID,0.0,
2019-03-07, 00:39:06,VALID,919.299,VALID,0.0,VALID,94.946,VALID,-0.008,VALID,21.703,INVALID,360.0,VALID,0.0,
2019-03-07, 00:40:06,VALID,919.295,VALID,0.0,VALID,95.204,VALID,-0.015,VALID,21.723,INVALID,360.0,VALID,0.0,
2019-03-07, 00:41:06,VALID,919.282,VALID,0.0,VALID,95.26,VALID,-0.004,VALID,21.726,INVALID,360.0,VALID,0.0,
2019-03-07, 00:42:06,VALID,919.282,VALID,0.0,VALID,95.33,VALID,-0.001,VALID,21.737,INVALID,360.0,VALID,0.0,
2019-03-07, 00:43:06,VALID,919.297,VALID,0.0,VALID,95.248,VALID,-0.013,VALID,21.725,INVALID,360.0,VALID,0.0,
2019-03-07, 00:44:06,VALID,919.284,VALID,0.0,VALID,95.13,VALID,-0.015,VALID,21.679,INVALID,360.0,VALID,0.0,
2019-03-07, 00:45:06,VALID,919.303,VALID,0.0,VALID,95.353,VALID,-0.003,VALID,21.646,INVALID,360.0,VALID,0.0,
2019-03-07, 00:46:06,VALID,919.313,VALID,0.0,VALID,95.598,VALID,-0.007,VALID,21.656,INVALID,360.0,VALID,0.0,
2019-03-07, 00:47:06,VALID,919.31,VALID,0.0,VALID,95.178,VALID,-0.006,VALID,21.587,INVALID,360.0,VALID,0.0,
2019-03-07, 00:48:06,VALID,919.315,VALID,0.0,VALID,94.596,VALID,-0.0,VALID,21.497,INVALID,360.0,VALID,0.0,
2019-03-07, 00:49:06,VALID,919.316,VALID,0.0,VALID,94.804,VALID,0.004,VALID,21.457,INVALID,360.0,VALID,0.0,
2019-03-07, 00:50:06,VALID,919.316,VALID,0.0,VALID,94.903,VALID,-0.008,VALID,21.436,INVALID,360.0,VALID,0.0,
2019-03-07, 00:51:06,VALID,919.307,VALID,0.0,VALID,94.996,VALID,-0.009,VALID,21.423,INVALID,360.0,VALID,0.0,
2019-03-07, 00:52:06,VALID,919.299,VALID,0.0,VALID,95.29,VALID,-0.025,VALID,21.412,INVALID,360.0,VALID,0.0,
2019-03-07, 00:53:06,VALID,919.293,VALID,0.0,VALID,95.52,VALID,-0.016,VALID,21.381,INVALID,360.0,VALID,0.0,
2019-03-07, 00:54:06,VALID,919.298,VALID,0.0,VALID,95.752,VALID,0.01,VALID,21.353,INVALID,360.0,VALID,0.0,
2019-03-07, 00:55:06,VALID,919.291,VALID,0.0,VALID,95.761,VALID,0.0,VALID,21.304,INVALID,360.0,VALID,0.0,
2019-03-07, 00:56:06,VALID,919.277,VALID,0.0,VALID,95.706,VALID,0.003,VALID,21.249,INVALID,360.0,VALID,0.0,
2019-03-07, 00:57:06,VALID,919.274,VALID,0.0,VALID,95.967,VALID,0.007,VALID,21.244,INVALID,360.0,VALID,0.0,
2019-03-07, 00:58:06,VALID,919.241,VALID,0.0,VALID,96.169,VALID,0.015,VALID,21.247,INVALID,360.0,VALID,0.0,
2019-03-07, 00:59:06,VALID,919.252,VALID,0.0,VALID,96.291,VALID,0.02,VALID,21.253,INVALID,360.0,VALID,0.0,
2019-03-07, 01:00:06,VALID,919.238,VALID,0.0,VALID,96.219,VALID,0.016,VALID,21.236,INVALID,360.0,VALID,0.0,
2019-03-07, 01:01:06,VALID,919.223,VALID,0.0,VALID,96.309,VALID,-0.017,VALID,21.257,INVALID,360.0,VALID,0.0,
2019-03-07, 01:02:06,VALID,919.214,VALID,0.0,VALID,96.499,VALID,-0.015,VALID,21.283,INVALID,360.0,VALID,0.0,
2019-03-07, 01:03:06,VALID,919.202,VALID,0.0,VALID,96.534,VALID,-0.004,VALID,21.269,INVALID,360.0,VALID,0.0,
2019-03-07, 01:04:06,VALID,919.173,VALID,0.0,VALID,96.543,VALID,0.003,VALID,21.256,INVALID,360.0,VALID,0.0,
2019-03-07, 01:05:06,VALID,919.153,VALID,0.0,VALID,96.454,VALID,-0.003,VALID,21.233,INVALID,360.0,VALID,0.0,
2019-03-07, 01:06:06,VALID,919.128,VALID,0.0,VALID,96.513,VALID,-0.002,VALID,21.228,INVALID,360.0,VALID,0.0,
2019-03-07, 01:07:06,VALID,919.105,VALID,0.0,VALID,96.479,VALID,-0.009,VALID,21.207,INVALID,360.0,VALID,0.0,
2019-03-07, 01:08:06,VALID,919.11,VALID,0.0,VALID,96.644,VALID,-0.014,VALID,21.223,INVALID,360.0,VALID,0.0,
2019-03-07, 01:09:06,VALID,919.087,VALID,0.0,VALID,96.976,VALID,-0.02,VALID,21.293,INVALID,360.0,VALID,0.0,
2019-03-07, 01:10:06,VALID,919.055,VALID,0.0,VALID,97.083,VALID,-0.018,VALID,21.324,INVALID,360.0,VALID,0.0,
2019-03-07, 01:11:06,VALID,919.046,VALID,0.0,VALID,97.101,VALID,-0.009,VALID,21.329,INVALID,360.0,VALID,0.0,
2019-03-07, 01:12:06,VALID,918.993,VALID,0.0,VALID,97.16,VALID,-0.025,VALID,21.351,INVALID,360.0,VALID,0.0,
2019-03-07, 01:13:06,VALID,918.945,VALID,0.0,VALID,97.031,VALID,-0.012,VALID,21.321,INVALID,360.0,VALID,0.0,
2019-03-07, 01:14:06,VALID,918.924,VALID,0.0,VALID,96.961,VALID,0.012,VALID,21.31,INVALID,360.0,VALID,0.0,
2019-03-07, 01:15:06,VALID,918.947,VALID,0.0,VALID,97.064,VALID,-0.001,VALID,21.35,INVALID,360.0,VALID,0.0,
2019-03-07, 01:16:06,VALID,918.945,VALID,0.0,VALID,97.256,VALID,0.018,VALID,21.402,INVALID,360.0,VALID,0.0,
2019-03-07, 01:17:06,VALID,918.95,VALID,0.0,VALID,96.985,VALID,0.009,VALID,21.373,INVALID,360.0,VALID,0.0,
2019-03-07, 01:18:06,VALID,918.955,VALID,0.0,VALID,97.016,VALID,0.013,VALID,21.403,INVALID,360.0,VALID,0.0,
2019-03-07, 01:19:06,VALID,918.916,VALID,0.0,VALID,97.151,VALID,0.003,VALID,21.453,INVALID,360.0,VALID,0.0,
2019-03-07, 01:20:06,VALID,918.91,VALID,0.0,VALID,97.086,VALID,0.016,VALID,21.456,INVALID,360.0,VALID,0.0,
2019-03-07, 01:21:06,VALID,918.889,VALID,0.0,VALID,97.018,VALID,0.017,VALID,21.436,INVALID,360.0,VALID,0.0,
2019-03-07, 01:22:06,VALID,918.879,VALID,0.0,VALID,96.945,VALID,0.022,VALID,21.413,INVALID,360.0,VALID,0.0,
2019-03-07, 01:23:06,VALID,918.835,VALID,0.0,VALID,96.722,VALID,0.006,VALID,21.345,INVALID,360.0,VALID,0.0,
2019-03-07, 01:24:06,VALID,918.796,VALID,0.0,VALID,96.504,VALID,0.014,VALID,21.285,VALID,42.0,VALID,0.0,
2019-03-07, 01:25:06,VALID,918.79,VALID,0.0,VALID,96.999,VALID,0.02,VALID,21.362,VALID,42.0,VALID,0.0,
2019-03-07, 01:26:06,VALID,918.796,VALID,0.0,VALID,97.121,VALID,0.024,VALID,21.379,INVALID,360.0,VALID,0.0,
2019-03-07, 01:27:06,VALID,918.802,VALID,0.0,VALID,96.987,VALID,0.021,VALID,21.324,INVALID,360.0,VALID,0.0,
2019-03-07, 01:28:06,VALID,918.803,VALID,0.0,VALID,96.988,VALID,0.005,VALID,21.303,VALID,43.0,VALID,0.0,
2019-03-07, 01:29:06,VALID,918.722,VALID,0.0,VALID,97.088,VALID,-0.026,VALID,21.301,INVALID,360.0,VALID,0.0,
2019-03-07, 01:30:06,VALID,918.689,VALID,0.0,VALID,97.053,VALID,-0.019,VALID,21.26,INVALID,360.0,VALID,0.0,
2019-03-07, 01:31:06,VALID,918.681,VALID,0.0,VALID,97.322,VALID,-0.017,VALID,21.305,INVALID,360.0,VALID,0.0,
2019-03-07, 01:32:06,VALID,918.719,VALID,0.0,VALID,97.464,VALID,-0.015,VALID,21.331,INVALID,360.0,VALID,0.0,
2019-03-07, 01:33:06,VALID,918.733,VALID,0.0,VALID,97.383,VALID,-0.015,VALID,21.291,INVALID,360.0,VALID,0.0,
2019-03-07, 01:34:06,VALID,918.727,VALID,0.0,VALID,97.485,VALID,-0.015,VALID,21.297,INVALID,360.0,VALID,0.0,
2019-03-07, 01:35:06,VALID,918.724,VALID,0.0,VALID,97.627,VALID,-0.018,VALID,21.324,INVALID,360.0,VALID,0.0,
2019-03-07, 01:36:06,VALID,918.672,VALID,0.0,VALID,97.656,VALID,-0.019,VALID,21.321,INVALID,360.0,VALID,0.0,
2019-03-07, 01:37:06,VALID,918.619,VALID,0.0,VALID,97.647,VALID,-0.016,VALID,21.292,INVALID,360.0,VALID,0.0,
2019-03-07, 01:38:06,VALID,918.592,VALID,0.0,VALID,97.576,VALID,-0.024,VALID,21.252,INVALID,360.0,VALID,0.0,
2019-03-07, 01:39:06,VALID,918.564,VALID,0.0,VALID,97.593,VALID,-0.023,VALID,21.235,INVALID,360.0,VALID,0.0,
2019-03-07, 01:40:06,VALID,918.581,VALID,0.0,VALID,97.655,VALID,-0.002,VALID,21.238,INVALID,360.0,VALID,0.0,
2019-03-07, 01:41:06,VALID,918.59,VALID,0.0,VALID,97.661,VALID,-0.007,VALID,21.222,INVALID,360.0,VALID,0.0,
2019-03-07, 01:42:06,VALID,918.586,VALID,0.0,VALID,97.721,VALID,-0.026,VALID,21.229,INVALID,360.0,VALID,0.0,
2019-03-07, 01:43:06,VALID,918.562,VALID,0.0,VALID,97.746,VALID,-0.008,VALID,21.22,INVALID,360.0,VALID,0.0,
2019-03-07, 01:44:06,VALID,918.533,VALID,0.0,VALID,97.665,VALID,0.009,VALID,21.185,INVALID,360.0,VALID,0.0,
2019-03-07, 01:45:06,VALID,918.511,VALID,0.0,VALID,97.697,VALID,0.029,VALID,21.181,INVALID,360.0,VALID,0.0,
2019-03-07, 01:46:06,VALID,918.497,VALID,0.0,VALID,97.755,VALID,0.034,VALID,21.183,INVALID,360.0,VALID,0.0,
2019-03-07, 01:47:06,VALID,918.496,VALID,0.0,VALID,97.84,VALID,0.035,VALID,21.212,INVALID,360.0,VALID,0.0,
2019-03-07, 01:48:06,VALID,918.526,VALID,0.0,VALID,97.816,VALID,0.034,VALID,21.202,INVALID,360.0,VALID,0.0,
2019-03-07, 01:49:06,VALID,918.532,VALID,0.0,VALID,97.823,VALID,0.016,VALID,21.217,INVALID,360.0,VALID,0.0,
2019-03-07, 01:50:06,VALID,918.521,VALID,0.0,VALID,97.837,VALID,0.033,VALID,21.218,INVALID,360.0,VALID,0.0,
2019-03-07, 01:51:06,VALID,918.497,VALID,0.0,VALID,97.769,VALID,0.027,VALID,21.194,INVALID,360.0,VALID,0.0,
2019-03-07, 01:52:06,VALID,918.465,VALID,0.0,VALID,97.697,VALID,0.024,VALID,21.162,INVALID,360.0,VALID,0.0,
2019-03-07, 01:53:06,VALID,918.443,VALID,0.0,VALID,97.664,VALID,0.029,VALID,21.143,INVALID,360.0,VALID,0.0,
2019-03-07, 01:54:06,VALID,918.415,VALID,0.0,VALID,97.712,VALID,0.016,VALID,21.145,INVALID,360.0,VALID,0.0,
2019-03-07, 01:55:06,VALID,918.377,VALID,0.0,VALID,97.789,VALID,0.021,VALID,21.157,INVALID,360.0,VALID,0.0,
2019-03-07, 01:56:06,VALID,918.356,VALID,0.0,VALID,97.864,VALID,-0.001,VALID,21.152,INVALID,360.0,VALID,0.0,
2019-03-07, 01:57:06,VALID,918.347,VALID,0.0,VALID,97.885,VALID,0.028,VALID,21.123,INVALID,360.0,VALID,0.0,
2019-03-07, 01:58:06,VALID,918.327,VALID,0.0,VALID,97.866,VALID,0.012,VALID,21.075,INVALID,360.0,VALID,0.0,
2019-03-07, 01:59:06,VALID,918.319,VALID,0.0,VALID,97.885,VALID,-0.022,VALID,21.049,INVALID,360.0,VALID,0.0,
2019-03-07, 02:00:06,VALID,918.314,VALID,0.0,VALID,97.917,VALID,-0.019,VALID,21.025,INVALID,360.0,VALID,0.0,
2019-03-07, 02:01:06,VALID,918.345,VALID,0.0,VALID,98.017,VALID,0.005,VALID,21.033,INVALID,360.0,VALID,0.0,
2019-03-07, 02:02:06,VALID,918.361,VALID,0.0,VALID,98.163,VALID,-0.006,VALID,21.076,INVALID,360.0,VALID,0.0,
2019-03-07, 02:03:06,VALID,918.367,VALID,0.0,VALID,98.178,VALID,0.01,VALID,21.066,INVALID,360.0,VALID,0.0,
2019-03-07, 02:04:06,VALID,918.372,VALID,0.0,VALID,98.142,VALID,-0.021,VALID,21.021,INVALID,360.0,VALID,0.0,
2019-03-07, 02:05:06,VALID,918.36,VALID,0.0,VALID,98.221,VALID,-0.009,VALID,21.014,INVALID,360.0,VALID,0.0,
2019-03-07, 02:06:06,VALID,918.319,VALID,0.0,VALID,98.203,VALID,-0.013,VALID,20.962,INVALID,360.0,VALID,0.0,
2019-03-07, 02:07:06,VALID,918.264,VALID,0.0,VALID,98.252,VALID,-0.024,VALID,20.956,INVALID,360.0,VALID,0.0,
2019-03-07, 02:08:06,VALID,918.249,VALID,0.0,VALID,98.292,VALID,-0.013,VALID,20.921,INVALID,360.0,VALID,0.0,
2019-03-07, 02:09:06,VALID,918.272,VALID,0.0,VALID,98.263,VALID,-0.004,VALID,20.869,INVALID,360.0,VALID,0.0,
2019-03-07, 02:10:06,VALID,918.281,VALID,0.0,VALID,98.42,VALID,-0.014,VALID,20.938,INVALID,360.0,VALID,0.0,
2019-03-07, 02:11:06,VALID,918.258,VALID,0.0,VALID,98.524,VALID,-0.002,VALID,21.003,INVALID,360.0,VALID,0.0,
2019-03-07, 02:12:06,VALID,918.245,VALID,0.0,VALID,98.541,VALID,-0.026,VALID,21.021,INVALID,360.0,VALID,0.0,
2019-03-07, 02:13:06,VALID,918.207,VALID,0.0,VALID,98.563,VALID,-0.01,VALID,21.029,INVALID,360.0,VALID,0.0,
2019-03-07, 02:14:06,VALID,918.18,VALID,0.0,VALID,98.572,VALID,-0.013,VALID,21.027,INVALID,360.0,VALID,0.0,
2019-03-07, 02:15:06,VALID,918.164,VALID,0.0,VALID,98.593,VALID,-0.014,VALID,21.047,INVALID,360.0,VALID,0.0,
2019-03-07, 02:16:06,VALID,918.174,VALID,0.0,VALID,98.612,VALID,-0.005,VALID,21.066,INVALID,360.0,VALID,0.0,
2019-03-07, 02:17:06,VALID,918.18,VALID,0.0,VALID,98.61,VALID,-0.01,VALID,21.081,INVALID,360.0,VALID,0.0,
2019-03-07, 02:18:06,VALID,918.146,VALID,0.0,VALID,98.644,VALID,-0.012,VALID,21.127,INVALID,360.0,VALID,0.0,
2019-03-07, 02:19:06,VALID,918.13,VALID,0.0,VALID,98.571,VALID,-0.017,VALID,21.093,INVALID,360.0,VALID,0.0,
2019-03-07, 02:20:06,VALID,918.096,VALID,0.0,VALID,98.553,VALID,-0.008,VALID,21.059,INVALID,360.0,VALID,0.0,
2019-03-07, 02:21:06,VALID,918.053,VALID,0.0,VALID,98.571,VALID,-0.008,VALID,21.05,INVALID,360.0,VALID,0.0,
2019-03-07, 02:22:06,VALID,918.041,VALID,0.0,VALID,98.546,VALID,0.001,VALID,21.042,INVALID,360.0,VALID,0.0,
2019-03-07, 02:23:06,VALID,918.025,VALID,0.0,VALID,98.538,VALID,-0.01,VALID,21.042,INVALID,360.0,VALID,0.0,
2019-03-07, 02:24:06,VALID,918.042,VALID,0.0,VALID,98.52,VALID,-0.009,VALID,21.035,INVALID,360.0,VALID,0.0,
2019-03-07, 02:25:06,VALID,918.073,VALID,0.0,VALID,98.479,VALID,0.001,VALID,21.034,INVALID,360.0,VALID,0.0,
2019-03-07, 02:26:06,VALID,918.055,VALID,0.0,VALID,98.431,VALID,0.005,VALID,21.036,INVALID,360.0,VALID,0.0,
2019-03-07, 02:27:06,VALID,918.056,VALID,0.0,VALID,98.324,VALID,-0.004,VALID,21.034,INVALID,360.0,VALID,0.0,
2019-03-07, 02:28:06,VALID,918.043,VALID,0.0,VALID,98.207,VALID,-0.005,VALID,21.027,INVALID,360.0,VALID,0.0,
2019-03-07, 02:29:06,VALID,918.04,VALID,0.0,VALID,98.115,VALID,0.01,VALID,21.046,INVALID,360.0,VALID,0.0,
2019-03-07, 02:30:06,VALID,918.04,VALID,0.0,VALID,97.994,VALID,0.004,VALID,21.061,INVALID,360.0,VALID,0.0,
2019-03-07, 02:31:06,VALID,918.074,VALID,0.0,VALID,97.887,VALID,0.004,VALID,21.091,INVALID,360.0,VALID,0.0,
2019-03-07, 02:32:06,VALID,918.086,VALID,0.0,VALID,97.708,VALID,0.016,VALID,21.116,INVALID,360.0,VALID,0.0,
2019-03-07, 02:33:06,VALID,918.053,VALID,0.0,VALID,97.448,VALID,0.011,VALID,21.133,INVALID,360.0,VALID,0.0,
2019-03-07, 02:34:06,VALID,918.063,VALID,0.0,VALID,97.23,VALID,0.014,VALID,21.157,INVALID,360.0,VALID,0.0,
2019-03-07, 02:35:06,VALID,918.063,VALID,0.0,VALID,97.066,VALID,0.001,VALID,21.154,INVALID,360.0,VALID,0.0,
2019-03-07, 02:36:06,VALID,918.057,VALID,0.0,VALID,96.995,VALID,0.004,VALID,21.13,INVALID,360.0,VALID,0.0,
2019-03-07, 02:37:06,VALID,918.034,VALID,0.0,VALID,96.944,VALID,-0.0,VALID,21.105,INVALID,360.0,VALID,0.0,
2019-03-07, 02:38:06,VALID,918.028,VALID,0.0,VALID,96.946,VALID,0.004,VALID,21.085,INVALID,360.0,VALID,0.0,
2019-03-07, 02:39:06,VALID,918.024,VALID,0.0,VALID,96.983,VALID,0.006,VALID,21.061,INVALID,360.0,VALID,0.0,
2019-03-07, 02:40:06,VALID,918.013,VALID,0.0,VALID,97.006,VALID,0.005,VALID,21.052,INVALID,360.0,VALID,0.0,
2019-03-07, 02:41:06,VALID,918.014,VALID,0.0,VALID,96.961,VALID,0.001,VALID,21.036,INVALID,360.0,VALID,0.0,
2019-03-07, 02:42:06,VALID,918.008,VALID,0.0,VALID,96.864,VALID,0.003,VALID,21.038,INVALID,360.0,VALID,0.0,
2019-03-07, 02:43:06,VALID,918.011,VALID,0.0,VALID,96.733,VALID,-0.005,VALID,21.036,INVALID,360.0,VALID,0.0,
2019-03-07, 02:44:06,VALID,918.01,VALID,0.0,VALID,96.579,VALID,-0.006,VALID,21.054,INVALID,360.0,VALID,0.0,
2019-03-07, 02:45:06,VALID,918.013,VALID,0.0,VALID,96.382,VALID,0.005,VALID,21.062,INVALID,360.0,VALID,0.0,
2019-03-07, 02:46:06,VALID,918.022,VALID,0.0,VALID,96.242,VALID,-0.007,VALID,21.08,INVALID,360.0,VALID,0.0,
2019-03-07, 02:47:06,VALID,918.0,VALID,0.0,VALID,96.213,VALID,-0.02,VALID,21.088,INVALID,360.0,VALID,0.0,
2019-03-07, 02:48:06,VALID,917.967,VALID,0.0,VALID,96.215,VALID,-0.005,VALID,21.069,INVALID,360.0,VALID,0.0,
2019-03-07, 02:49:06,VALID,917.941,VALID,0.0,VALID,96.259,VALID,-0.006,VALID,21.054,INVALID,360.0,VALID,0.0,
2019-03-07, 02:50:06,VALID,917.935,VALID,0.0,VALID,96.28,VALID,-0.013,VALID,21.053,INVALID,360.0,VALID,0.0,
2019-03-07, 02:51:06,VALID,917.92,VALID,0.0,VALID,96.245,VALID,-0.006,VALID,21.059,INVALID,360.0,VALID,0.0,
2019-03-07, 02:52:06,VALID,917.935,VALID,0.0,VALID,96.247,VALID,-0.003,VALID,21.043,INVALID,360.0,VALID,0.0,
2019-03-07, 02:53:06,VALID,917.937,VALID,0.0,VALID,96.29,VALID,-0.005,VALID,21.032,INVALID,360.0,VALID,0.0,
2019-03-07, 02:54:06,VALID,917.92,VALID,0.0,VALID,96.401,VALID,0.0,VALID,21.025,INVALID,360.0,VALID,0.0,
2019-03-07, 02:55:06,VALID,917.891,VALID,0.0,VALID,96.463,VALID,-0.015,VALID,21.011,INVALID,360.0,VALID,0.0,
2019-03-07, 02:56:06,VALID,917.863,VALID,0.0,VALID,96.373,VALID,-0.027,VALID,21.026,INVALID,360.0,VALID,0.0,
2019-03-07, 02:57:06,VALID,917.842,VALID,0.0,VALID,96.321,VALID,-0.007,VALID,21.031,INVALID,360.0,VALID,0.0,
2019-03-07, 02:58:06,VALID,917.813,VALID,0.0,VALID,96.336,VALID,0.002,VALID,21.02,INVALID,360.0,VALID,0.0,
2019-03-07, 02:59:06,VALID,917.817,VALID,0.0,VALID,96.352,VALID,0.003,VALID,21.011,INVALID,360.0,VALID,0.0,
2019-03-07, 03:00:06,VALID,917.801,VALID,0.0,VALID,96.355,VALID,0.007,VALID,21.005,INVALID,360.0,VALID,0.0,
2019-03-07, 03:01:06,VALID,917.784,VALID,0.0,VALID,96.274,VALID,0.001,VALID,21.008,INVALID,360.0,VALID,0.0,
2019-03-07, 03:02:06,VALID,917.767,VALID,0.0,VALID,96.196,VALID,0.013,VALID,21.027,INVALID,360.0,VALID,0.0,
2019-03-07, 03:03:06,VALID,917.759,VALID,0.0,VALID,96.068,VALID,0.004,VALID,21.052,INVALID,360.0,VALID,0.0,
2019-03-07, 03:04:06,VALID,917.738,VALID,0.0,VALID,95.935,VALID,-0.002,VALID,21.062,INVALID,360.0,VALID,0.0,
2019-03-07, 03:05:06,VALID,917.733,VALID,0.0,VALID,95.925,VALID,-0.005,VALID,21.073,INVALID,360.0,VALID,0.0,
2019-03-07, 03:06:06,VALID,917.701,VALID,0.0,VALID,95.871,VALID,-0.011,VALID,21.071,INVALID,360.0,VALID,0.0,
2019-03-07, 03:07:06,VALID,917.689,VALID,0.0,VALID,95.808,VALID,0.008,VALID,21.083,INVALID,360.0,VALID,0.0,
2019-03-07, 03:08:06,VALID,917.682,VALID,0.0,VALID,95.718,VALID,0.012,VALID,21.091,INVALID,360.0,VALID,0.0,
2019-03-07, 03:09:06,VALID,917.67,VALID,0.0,VALID,95.706,VALID,-0.002,VALID,21.094,INVALID,360.0,VALID,0.0,
2019-03-07, 03:10:06,VALID,917.658,VALID,0.0,VALID,95.694,VALID,0.009,VALID,21.101,INVALID,360.0,VALID,0.0,
2019-03-07, 03:11:06,VALID,917.656,VALID,0.0,VALID,95.65,VALID,0.0,VALID,21.108,INVALID,360.0,VALID,0.0,
2019-03-07, 03:12:06,VALID,917.637,VALID,0.0,VALID,95.661,VALID,0.01,VALID,21.094,INVALID,360.0,VALID,0.0,
2019-03-07, 03:13:06,VALID,917.641,VALID,0.0,VALID,95.751,VALID,-0.001,VALID,21.087,INVALID,360.0,VALID,0.0,
2019-03-07, 03:14:06,VALID,917.616,VALID,0.0,VALID,95.7,VALID,-0.016,VALID,21.098,INVALID,360.0,VALID,0.0,
2019-03-07, 03:15:06,VALID,917.604,VALID,0.0,VALID,95.743,VALID,-0.012,VALID,21.076,INVALID,360.0,VALID,0.0,
2019-03-07, 03:16:06,VALID,917.576,VALID,0.0,VALID,95.833,VALID,-0.015,VALID,21.061,INVALID,360.0,VALID,0.0,
2019-03-07, 03:17:06,VALID,917.563,VALID,0.0,VALID,95.893,VALID,-0.009,VALID,21.056,INVALID,360.0,VALID,0.0,
2019-03-07, 03:18:06,VALID,917.523,VALID,0.0,VALID,95.942,VALID,-0.004,VALID,21.054,INVALID,360.0,VALID,0.0,
2019-03-07, 03:19:06,VALID,917.507,VALID,0.0,VALID,95.95,VALID,0.006,VALID,21.058,INVALID,360.0,VALID,0.0,
2019-03-07, 03:20:06,VALID,917.499,VALID,0.0,VALID,95.926,VALID,-0.007,VALID,21.065,INVALID,360.0,VALID,0.0,
2019-03-07, 03:21:06,VALID,917.462,VALID,0.0,VALID,95.901,VALID,-0.013,VALID,21.055,INVALID,360.0,VALID,0.0,
2019-03-07, 03:22:06,VALID,917.442,VALID,0.0,VALID,95.841,VALID,-0.016,VALID,21.06,INVALID,360.0,VALID,0.0,
2019-03-07, 03:23:06,VALID,917.41,VALID,0.0,VALID,95.586,VALID,-0.006,VALID,21.126,INVALID,360.0,VALID,0.0,
2019-03-07, 03:24:06,VALID,917.412,VALID,0.0,VALID,95.254,VALID,-0.013,VALID,21.151,INVALID,360.0,VALID,0.0,
2019-03-07, 03:25:06,VALID,917.398,VALID,0.0,VALID,95.137,VALID,-0.013,VALID,21.169,INVALID,360.0,VALID,0.0,
2019-03-07, 03:26:06,VALID,917.398,VALID,0.0,VALID,94.902,VALID,-0.016,VALID,21.216,INVALID,360.0,VALID,0.0,
2019-03-07, 03:27:06,VALID,917.402,VALID,0.0,VALID,94.844,VALID,-0.018,VALID,21.213,INVALID,360.0,VALID,0.0,
2019-03-07, 03:28:06,VALID,917.406,VALID,0.0,VALID,94.983,VALID,-0.001,VALID,21.181,INVALID,360.0,VALID,0.0,
2019-03-07, 03:29:06,VALID,917.415,VALID,0.0,VALID,95.132,VALID,0.018,VALID,21.146,INVALID,360.0,VALID,0.0,
2019-03-07, 03:30:06,VALID,917.428,VALID,0.0,VALID,95.181,VALID,0.011,VALID,21.122,INVALID,360.0,VALID,0.0,
2019-03-07, 03:31:06,VALID,917.43,VALID,0.0,VALID,95.296,VALID,0.02,VALID,21.12,INVALID,360.0,VALID,0.0,
2019-03-07, 03:32:06,VALID,917.449,VALID,0.0,VALID,95.454,VALID,0.014,VALID,21.127,VALID,42.0,VALID,0.0,
2019-03-07, 03:33:06,VALID,917.448,VALID,0.0,VALID,95.526,VALID,0.016,VALID,21.125,INVALID,360.0,VALID,0.0,
2019-03-07, 03:34:06,VALID,917.451,VALID,0.0,VALID,95.815,VALID,0.01,VALID,21.159,INVALID,360.0,VALID,0.0,
2019-03-07, 03:35:06,VALID,917.445,VALID,0.0,VALID,95.72,VALID,0.012,VALID,21.146,INVALID,360.0,VALID,0.0,
2019-03-07, 03:36:06,VALID,917.443,VALID,0.0,VALID,95.682,VALID,0.006,VALID,21.131,INVALID,360.0,VALID,0.0,
2019-03-07, 03:37:06,VALID,917.396,VALID,0.0,VALID,95.825,VALID,0.005,VALID,21.124,INVALID,360.0,VALID,0.0,
2019-03-07, 03:38:06,VALID,917.41,VALID,0.0,VALID,95.85,VALID,0.009,VALID,21.095,INVALID,360.0,VALID,0.0,